Weather History for Olympia, WA

Change the Weather History Date:

Wednesday, March 27, 2013

  Actual Average Record
Temperature  
Mean Temperature 53 °F 46 °F  
Max Temperature 60 °F 56 °F 75 °F (1994)
Min Temperature 45 °F 36 °F 20 °F (1975)
Degree Days  
Heating Degree Days 12 19  
Month to date heating degree days 559 560  
Since 1 July heating degree days 4246 4282  
Cooling Degree Days 0 0  
Month to date cooling degree days 0 0  
Year to date cooling degree days 0 0  
Growing Degree Days 2 (Base 50)    
Moisture  
Dew Point 44 °F    
Average Humidity 72    
Maximum Humidity 93    
Minimum Humidity 51    
Precipitation  
Precipitation T in 0.15 in 1.51 in (1968)
Month to date precipitation 3.67 4.67  
Year to date precipitation 11.62 17.78  
Sea Level Pressure  
Sea Level Pressure 29.96 in    
Wind  
Wind Speed 4 mph (NE)    
Max Wind Speed 10 mph    
Max Gust Speed 13 mph    
Visibility 8 miles    
Events Rain    
T = Trace of Precipitation, MM = Missing Value Source: NWS Daily Summary

Daily Weather History Graph

Daily Weather History Graph

Search for Another Location

Airport:

Trip Planner

Search our weather history database for the weather conditions in past years. The results will help you decide how hot, cold, wet, or windy it might be!

Date:

Astronomy

Mar. 27, 2013 Rise Set
Actual Time 6:59 AM PDT 7:34 PM PDT
Civil Twilight 6:29 AM PDT 8:05 PM PDT
Nautical Twilight 5:53 AM PDT 8:41 PM PDT
Astronomical Twilight 5:15 AM PDT 9:19 PM PDT
Moon 8:30 PM PDT (3/27) 6:50 AM PDT (3/27)
Length of Visible Light 13h 35m
Length of Day
12h 34m
Full, 100% of the Moon is Illuminated
Mar 27
Full
Apr 2
Last Quarter
Apr 10
New
Apr 18
First Quarter
Apr 25
Full

Hourly Weather History & Observations

Time (PDT) Temp. Windchill Dew Point Humidity Pressure Visibility Wind Dir Wind Speed Gust Speed Precip Events Conditions
12:32 AM 48.9 °F - 46.9 °F 93% 29.98 in 7.0 mi Calm Calm - 0.01 in Rain Light Rain
12:54 AM 48.9 °F - 46.9 °F 93% 29.98 in 7.0 mi Calm Calm - 0.01 in Rain Light Rain
1:54 AM 48.9 °F - 48.0 °F 97% 29.98 in 7.0 mi Calm Calm - 0.00 in   Overcast
2:54 AM 48.0 °F - 46.9 °F 96% 29.96 in 5.0 mi Calm Calm - N/A   Overcast
3:14 AM 48.0 °F - 46.9 °F 96% 29.96 in 2.5 mi Calm Calm - N/A   Overcast
3:23 AM 48.0 °F - 46.9 °F 96% 29.95 in 2.0 mi Calm Calm - N/A   Overcast
3:35 AM 46.9 °F - 46.9 °F 100% 29.95 in 3.0 mi Calm Calm - N/A   Overcast
3:54 AM 48.9 °F - 46.9 °F 93% 29.95 in 7.0 mi North 5.8 mph - N/A   Overcast
4:54 AM 48.0 °F - 42.1 °F 80% 29.95 in 10.0 mi Calm Calm - N/A   Overcast
5:54 AM 46.9 °F - 41.0 °F 80% 29.95 in 10.0 mi NNE 3.5 mph - N/A   Overcast
6:54 AM 45.0 °F - 43.0 °F 93% 29.95 in 10.0 mi Calm Calm - N/A   Overcast
7:54 AM 46.0 °F 44.8 °F 44.1 °F 93% 29.96 in 8.0 mi SSW 3.5 mph - 0.00 in   Overcast
8:54 AM 48.0 °F - 43.0 °F 83% 29.96 in 8.0 mi Calm Calm - 0.00 in Rain Light Rain
9:54 AM 48.9 °F - 44.1 °F 83% 29.96 in 8.0 mi NNE 4.6 mph - 0.00 in   Overcast
10:54 AM 51.1 °F - 42.1 °F 71% 29.97 in 9.0 mi NE 3.5 mph - N/A   Overcast
11:54 AM 54.0 °F - 42.1 °F 64% 29.97 in 9.0 mi ENE 3.5 mph - N/A   Mostly Cloudy
12:54 PM 55.9 °F - 42.1 °F 60% 29.96 in 9.0 mi East 5.8 mph - N/A   Mostly Cloudy
1:54 PM 59.0 °F - 42.1 °F 53% 29.96 in 10.0 mi NE 6.9 mph - N/A   Mostly Cloudy
2:54 PM 60.1 °F - 42.1 °F 51% 29.95 in 10.0 mi NE 9.2 mph - N/A   Mostly Cloudy
3:54 PM 57.9 °F - 42.1 °F 56% 29.95 in 10.0 mi NE 8.1 mph - N/A   Overcast
4:54 PM 60.1 °F - 42.1 °F 51% 29.95 in 10.0 mi East 5.8 mph - N/A   Overcast
5:54 PM 57.0 °F - 41.0 °F 55% 29.95 in 10.0 mi ENE 8.1 mph - N/A   Partly Cloudy
6:54 PM 55.9 °F - 43.0 °F 62% 29.96 in 10.0 mi NNE 6.9 mph - N/A   Overcast
7:54 PM 53.1 °F - 41.0 °F 64% 29.96 in 10.0 mi North 4.6 mph - N/A   Overcast
8:54 PM 51.1 °F - 42.1 °F 71% 29.98 in 10.0 mi NNE 4.6 mph - N/A   Overcast
9:54 PM 51.1 °F - 43.0 °F 74% 29.99 in 10.0 mi North 3.5 mph - N/A   Overcast
10:54 PM 48.0 °F - 43.0 °F 83% 29.99 in 10.0 mi Calm Calm - N/A   Overcast
11:54 PM 48.9 °F - 45.0 °F 86% 29.99 in 10.0 mi Calm Calm - 0.00 in   Overcast